Miscellaneous Local Product
Issued by NWS North Platte, NE

Home | Current Version | Previous Version | Text Only | Print | Product List | Glossary On
Versions: 1 2 3 4 5 6 7 8 9 10 11 12 13 14 15 16 17 18 19 20 21 22 23 24 25 26 27 28 29 30 31 32 33 34 35 36 37 38 39 40 41 42 43 44 45 46 47 48 49 50
580
AXUS43 KLBF 101710
MISLBF


WESTERN AND NORTH CENTRAL NEBRASKA HOURLY WEATHER ROUNDUP
NATIONAL WEATHER SERVICE NORTH PLATTE NE
1100 AM CST SAT DEC 10 2016

NOTE: "FAIR" INDICATES FEW OR NO CLOUDS BELOW 12,000 FEET WITH NO
SIGNIFICANT WEATHER AND/OR OBSTRUCTIONS TO VISIBILITY.

NOTE: STATIONS NOT REPORTING VARIABLES SUCH AS SKY/WEATHER OR
PRESSURE ARE PROVIDED BY RAWS AND APRS NETWORKS AND ARE NOT UNDER
NATIONAL WEATHER SERVICE QUALITY CONTROL.

...OBSERVATIONS IN AND NEAR THE EASTERN PANHANDLE OF NEBRASKA...

CITY           SKY/WX    TMP DP  RH WIND       PRES   REMARKS
PINE RIDGE     CLOUDY    11   7  84 E7        29.92F WCI   0
CHADRON        CLOUDY     9   4  80 CALM      29.92F
ALLIANCE       CLOUDY    20  15  81 S12       29.86F WCI   8
SIDNEY         CLOUDY    26  19  74 S8        29.88F WCI  18
$$

...OBSERVATIONS IN NORTHERN NEBRASKA AND FAR SOUTHERN SOUTH DAKOTA...

CITY           SKY/WX    TMP DP  RH WIND       PRES   REMARKS
WINNER         CLOUDY    10   5  80 E16       30.11F WCI  -7
VALENTINE      CLOUDY    11   6  81 E9        30.03F WCI  -2
THEDFORD       CLOUDY    24  18  80 S14       30.01S WCI  11
AINSWORTH      CLOUDY    19  17  90 SE18      30.03F WCI   4
O`NEILL        CLOUDY    22  18  85 SE16G22   30.15F WCI   8
ORD            CLOUDY    25  15  66 SE14G23   30.13F WCI  13
BROKEN BOW     CLOUDY    25  17  72 S18       30.06F WCI  11
BUTTE            N/A     12  10  90 E15         N/A  WCI  -4
CHAMBERS         N/A     24  15  69 E12G18      N/A  WCI  13
EWING            N/A     23  20  89 SE5G12      N/A  WCI  17
$$

...OBSERVATIONS IN SOUTHWEST NEBRASKA AND FAR NORTHEAST COLORADO...

CITY           SKY/WX    TMP DP  RH WIND       PRES   REMARKS
HOLYOKE        FAIR      27  21  80 SE7       29.93F WCI  19
IMPERIAL       CLOUDY    22  18  85 VRB3      30.00R
OGALLALA       CLOUDY    24  19  81 S6        29.98F WCI  17
NORTH PLATTE   CLOUDY    24  15  68 SE13      30.03F WCI  12
MCCOOK         CLOUDY    24  18  77 S10       30.05F WCI  14
LEXINGTON      CLOUDY    26  17  67 S14       30.10S WCI  15
STAPLETON        N/A     22  15  75 CALM        N/A
GOTHENBURG       N/A     22  15  73 S9          N/A  WCI  12
CALLAWAY         N/A     23  17  78 S24         N/A  WCI   7
$$

...OBSERVATIONS IN CENTRAL LINCOLN COUNTY AREA...

CITY           SKY/WX    TMP DP  RH WIND       PRES   REMARKS
N.P. AIRPORT   CLOUDY    24  15  68 SE13      30.03F WCI  12
N.P. DOWNTOWN    N/A     22  16  78 SE5G14      N/A  WCI  16
N.P. SOUTHEAST   N/A     22  16  77 S8          N/A  WCI  13
N.P. HILLCREST   N/A     22  17  80 S12         N/A  WCI  11
$$

...SOME OBSERVATIONS FROM AROUND THE REGION...

CITY           SKY/WX    TMP DP  RH WIND       PRES   REMARKS
LARAMIE        CLOUDY    40  21  46 W15         N/A  WCI  32
CHEYENNE       CLOUDY    47  21  35 W29G40    29.84F
DENVER         CLOUDY    34  25  69 SE3       29.85F
AKRON          CLOUDY    28  21  75 CALM      29.88S
SCOTTSBLUFF    CLOUDY    20  14  77 E7        29.86F WCI  11
RAPID CITY     CLOUDY     3  -1  83 SE12      29.94F WCI -13
BISMARCK       CLOUDY   -14 -17  87 NE7       30.30F WCI -30
PIERRE         LGT SNOW   3  -2  79 E16       30.17F VSB 1   WCI -16
SIOUX FALLS    LGT SNOW  12   9  87 E9        30.29F VSB 1   WCI   0
OMAHA          CLOUDY    26  17  68 SE10      30.34F WCI  16
GRAND ISLAND   CLOUDY    27  19  72 SE13G25   30.18F WCI  16
KANSAS CITY    PTSUNNY   32  16  51 SE10      30.36F WCI  24
WICHITA        CLOUDY    37  21  52 S17G25    30.25F WCI  27
OKLAHOMA CITY  CLOUDY    41  21  44 S22G30    30.30F
DALLAS         CLOUDY    43  24  47 S14       30.44F
AMARILLO       SUNNY     46  35  65 SW18      30.08F
DODGE CITY     CLOUDY    31  22  69 S21       30.09F WCI  18
HAYS           CLOUDY    31  20  63 S17       30.13F WCI  19
GOODLAND       CLOUDY    24  22  91 S14       29.93F WCI  12
$$




USA.gov is the U.S. government's official web portal to all federal, state and local government web resources and services.